ATLAS 5 CENTAUR DEB, 55859

Orbit data source: Space-Track

ATLAS 5 CENTAUR DEB, 55859 is space debris in HEO originally from a launch on Wed, 17 Oct 2018 UTC launched from the Air Force Eastern Test Range (AFETR). Debris objects in space refer to the collection of defunct objects orbiting the Earth. Examples of debris include non-operational satellites, rocket bodies, and fragments generated from explosions, collisions, or faulty payload assembly.

Loading next visibility...
Identifier
55859, 2018-079HM
Orbit
HEO
Country
Flag of USUS
Related business
Flag of USUnited Launch Alliance/Lockheed Martin (US)
Manufacturer
ULA Decatur
Mission
Spacecraft
Bus & Motor
Unknown
Mass
Unknown
Launch date (UTC)
2018-10-17 (8 years ago)
Launch vehicle
Unknown
Launch site
Air Force Eastern Test Range (AFETR)
Object type
Payload
Rocket body
Debris
Shape & HBR
Unknown shape, 1.1 m
Radar Cross Section
RCS unknown

Expand to show TLE details & history
Last TLE update: 4 days ago

TLE from 4 days ago
0 ATLAS 5 CENTAUR DEB
1 55859U 18079HM  26169.10578000 -.00000123  00000-0  00000+0 0  9998
2 55859  13.2997  33.6526 4664461 319.8269  13.6263  1.82878715 31146
Epoch: 2026-06-18T02:32Z
TLE epoch observation values (Epoch: 2026-06-18T02:32:19.391Z)
Latitude
0.00011°
Longitude
89.19674°
Altitude
9,948.931 km
Speed
5.892 km/s
True Right ascension
02h 14m 31s
True Declination
0° 00' 00"
Sunlit
Object was in daylight at epoch
Visualization orbit readout
Latitude
Unknown
Longitude
Unknown
Altitude
Unknown
Speed
Unknown
Apparent Right ascension
Unknown
Apparent Declination
Unknown
Sunlit
N/A
Visualization observer readout
Local Sidereal Time
21:36:48
Azimuth
Unknown
Elevation
Unknown
Doppler factor
Unknown
Orbital elements
Apogee altitude
35,046.432 km
Perigee altitude
8,693.839 km
Semi-major axis
28,248.272 km
Eccentricity
0.46645
Inclination
13.2997°
RAAN
33.6526°
Arg. of periapsis
319.8269°
True anomaly
40.15029°
Mean anomaly
13.6263°
Eccentric anomaly
24.86298°
Mean motion
0.45715 °/min
Orbital period
787.49 mins
BSTAR
0
Loading maneuver chart data...
Computing Atmospheric mass density...

Documentation

Showing up to 5 results
|